Time,TemperatureF,DewpointF,PressureIn,WindDirection,WindDirectionDegrees,WindSpeedMPH,WindSpeedGustMPH,Humidity,HourlyPrecipIn,Conditions,Clouds,dailyrainin,SoftwareType,DateUTC
2013-07-08 00:02:00,73.0,66.0,30.00,NW,315,0.0,2.0,80,0.00,,,0.01,,2013-07-08 04:02:00,
2013-07-08 00:12:00,73.0,66.0,30.01,NW,315,0.0,0.0,79,0.00,,,0.01,,2013-07-08 04:12:00,
2013-07-08 00:22:00,73.0,66.0,30.01,NW,315,0.0,0.0,79,0.00,,,0.01,,2013-07-08 04:22:00,
2013-07-08 00:33:00,72.0,65.0,30.01,NW,315,0.0,1.0,80,0.00,,,0.01,,2013-07-08 04:33:00,
2013-07-08 00:42:00,73.0,66.0,30.01,NW,315,0.0,1.0,79,0.00,,,0.01,,2013-07-08 04:42:00,
2013-07-08 00:53:00,73.0,66.0,30.01,NW,318,0.0,1.0,79,0.00,,,0.01,,2013-07-08 04:53:00,
2013-07-08 01:01:00,73.0,66.0,30.01,NW,318,0.0,1.0,79,0.00,,,0.01,,2013-07-08 05:01:00,
2013-07-08 01:12:00,73.0,66.0,30.01,NW,311,0.0,2.0,79,0.00,,,0.01,,2013-07-08 05:12:00,
2013-07-08 01:22:00,73.0,66.0,30.01,West,273,0.0,3.0,79,0.00,,,0.01,,2013-07-08 05:22:00,
2013-07-08 01:33:00,73.0,66.0,30.01,West,273,0.0,3.0,79,0.00,,,0.01,,2013-07-08 05:33:00,
2013-07-08 01:43:00,73.0,66.0,30.01,WSW,244,1.0,5.0,79,0.00,,,0.01,,2013-07-08 05:43:00,
2013-07-08 01:53:00,74.0,67.0,30.01,WSW,240,0.0,4.0,78,0.00,,,0.01,,2013-07-08 05:53:00,
2013-07-08 02:01:00,74.0,67.0,30.01,WSW,240,0.0,4.0,78,0.00,,,0.01,,2013-07-08 06:01:00,
2013-07-08 02:12:00,74.0,67.0,30.01,WSW,252,2.0,5.0,79,0.00,,,0.01,,2013-07-08 06:12:00,
2013-07-08 02:22:00,74.0,67.0,30.01,WSW,248,2.0,5.0,79,0.00,,,0.01,,2013-07-08 06:22:00,
2013-07-08 02:34:00,74.0,67.0,30.01,WSW,248,2.0,5.0,79,0.00,,,0.01,,2013-07-08 06:34:00,
2013-07-08 02:43:00,73.0,66.0,30.01,SW,232,1.0,5.0,80,0.00,,,0.01,,2013-07-08 06:43:00,
2013-07-08 02:53:00,73.0,66.0,30.01,SW,234,1.0,7.0,80,0.00,,,0.01,,2013-07-08 06:53:00,
2013-07-08 03:02:00,73.0,66.0,30.01,SW,234,1.0,7.0,80,0.00,,,0.01,,2013-07-08 07:02:00,
2013-07-08 03:12:00,73.0,67.0,30.01,SW,220,3.0,7.0,81,0.00,,,0.01,,2013-07-08 07:12:00,
2013-07-08 03:22:00,73.0,67.0,30.01,WSW,252,3.0,6.0,81,0.00,,,0.01,,2013-07-08 07:22:00,
2013-07-08 03:34:00,73.0,67.0,30.01,WSW,252,3.0,6.0,81,0.00,,,0.01,,2013-07-08 07:34:00,
2013-07-08 03:44:00,73.0,67.0,30.01,WSW,242,1.0,4.0,81,0.00,,,0.01,,2013-07-08 07:44:00,
2013-07-08 03:53:00,73.0,67.0,30.01,WSW,246,1.0,5.0,81,0.00,,,0.01,,2013-07-08 07:53:00,
2013-07-08 04:02:00,73.0,67.0,30.01,WSW,246,1.0,5.0,81,0.00,,,0.01,,2013-07-08 08:02:00,
2013-07-08 04:12:00,73.0,67.0,30.01,South,186,1.0,4.0,81,0.00,,,0.01,,2013-07-08 08:12:00,
2013-07-08 04:22:00,73.0,67.0,30.01,WSW,248,0.0,4.0,82,0.00,,,0.01,,2013-07-08 08:22:00,
2013-07-08 04:33:00,73.0,67.0,30.01,WSW,248,0.0,4.0,82,0.00,,,0.01,,2013-07-08 08:33:00,
2013-07-08 04:42:00,73.0,67.0,30.01,SW,226,1.0,4.0,82,0.00,,,0.01,,2013-07-08 08:42:00,
2013-07-08 04:53:00,73.0,67.0,30.00,SW,224,1.0,3.0,82,0.00,,,0.01,,2013-07-08 08:53:00,
2013-07-08 05:02:00,73.0,67.0,30.00,SW,224,1.0,3.0,82,0.00,,,0.01,,2013-07-08 09:02:00,
2013-07-08 05:11:00,73.0,67.0,30.00,WSW,254,1.0,4.0,82,0.00,,,0.01,,2013-07-08 09:11:00,
2013-07-08 05:22:00,72.0,67.0,30.00,WSW,252,1.0,3.0,83,0.00,,,0.01,,2013-07-08 09:22:00,
2013-07-08 05:34:00,72.0,67.0,30.00,WSW,252,1.0,3.0,83,0.00,,,0.01,,2013-07-08 09:34:00,
2013-07-08 05:43:00,72.0,67.0,30.00,WSW,249,1.0,5.0,83,0.00,,,0.01,,2013-07-08 09:43:00,
2013-07-08 05:52:00,72.0,67.0,30.00,SW,233,0.0,3.0,83,0.00,,,0.01,,2013-07-08 09:52:00,
2013-07-08 06:02:00,72.0,67.0,30.00,SW,233,0.0,3.0,83,0.00,,,0.01,,2013-07-08 10:02:00,
2013-07-08 06:11:00,72.0,67.0,30.00,WSW,249,1.0,4.0,84,0.00,,,0.01,,2013-07-08 10:11:00,
2013-07-08 06:22:00,72.0,67.0,30.00,SW,234,0.0,3.0,84,0.00,,,0.01,,2013-07-08 10:22:00,
2013-07-08 06:34:00,72.0,67.0,30.00,SW,234,0.0,3.0,84,0.00,,,0.01,,2013-07-08 10:34:00,
2013-07-08 06:43:00,71.0,66.0,30.00,SSW,198,0.0,3.0,85,0.00,,,0.01,,2013-07-08 10:43:00,
2013-07-08 06:53:00,71.0,67.0,30.01,SSW,198,0.0,1.0,86,0.00,,,0.01,,2013-07-08 10:53:00,
2013-07-08 07:02:00,71.0,67.0,30.01,SSW,198,0.0,1.0,86,0.00,,,0.01,,2013-07-08 11:02:00,
2013-07-08 07:11:00,70.0,66.0,30.02,SSW,198,0.0,0.0,87,0.00,,,0.01,,2013-07-08 11:11:00,
2013-07-08 07:23:00,71.0,67.0,30.02,SSW,206,0.0,2.0,87,0.00,,,0.00,,2013-07-08 11:23:00,
2013-07-08 07:33:00,71.0,67.0,30.02,SSW,206,0.0,2.0,87,0.00,,,0.00,,2013-07-08 11:33:00,
2013-07-08 07:43:00,71.0,67.0,30.02,WSW,254,1.0,3.0,86,0.00,,,0.00,,2013-07-08 11:43:00,
2013-07-08 07:53:00,73.0,68.0,30.03,WSW,246,1.0,3.0,84,0.00,,,0.00,,2013-07-08 11:53:00,
2013-07-08 08:01:00,73.0,68.0,30.03,WSW,246,1.0,3.0,84,0.00,,,0.00,,2013-07-08 12:01:00,
2013-07-08 08:11:00,74.0,68.0,30.02,WSW,244,1.0,5.0,83,0.00,,,0.00,,2013-07-08 12:11:00,
2013-07-08 08:22:00,75.0,68.0,30.02,SW,232,3.0,6.0,80,0.00,,,0.00,,2013-07-08 12:22:00,
2013-07-08 08:34:00,75.0,68.0,30.02,SW,232,3.0,6.0,80,0.00,,,0.00,,2013-07-08 12:34:00,
2013-07-08 08:53:00,76.0,69.0,30.02,WSW,246,1.0,5.0,79,0.00,,,0.00,,2013-07-08 12:53:00,
2013-07-08 09:02:00,76.0,68.0,30.02,NNW,342,3.0,6.0,77,0.00,,,0.00,,2013-07-08 13:02:00,
2013-07-08 09:22:00,77.0,69.0,30.03,WSW,250,4.0,9.0,77,0.00,,,0.00,,2013-07-08 13:22:00,
2013-07-08 09:33:00,77.0,69.0,30.03,WSW,250,4.0,9.0,77,0.00,,,0.00,,2013-07-08 13:33:00,
2013-07-08 09:42:00,77.0,69.0,30.03,West,271,4.0,8.0,77,0.00,,,0.00,,2013-07-08 13:42:00,
2013-07-08 09:53:00,77.0,69.0,30.03,West,271,4.0,8.0,77,0.00,,,0.00,,2013-07-08 13:53:00,
2013-07-08 10:02:00,77.0,69.0,30.03,SW,219,3.0,6.0,77,0.00,,,0.00,,2013-07-08 14:02:00,
2013-07-08 10:12:00,78.0,70.0,30.03,WSW,240,3.0,7.0,76,0.00,,,0.00,,2013-07-08 14:12:00,
2013-07-08 10:22:00,78.0,70.0,30.03,WSW,240,3.0,7.0,76,0.00,,,0.00,,2013-07-08 14:22:00,
2013-07-08 10:34:00,78.0,70.0,30.03,SW,235,2.0,7.0,77,0.00,,,0.00,,2013-07-08 14:34:00,
2013-07-08 10:43:00,80.0,72.0,30.03,South,183,2.0,7.0,76,0.00,,,0.00,,2013-07-08 14:43:00,
2013-07-08 10:53:00,80.0,72.0,30.03,South,183,2.0,7.0,76,0.00,,,0.00,,2013-07-08 14:53:00,
2013-07-08 11:02:00,80.0,71.0,30.04,SW,231,3.0,7.0,73,0.00,,,0.00,,2013-07-08 15:02:00,
2013-07-08 11:22:00,80.0,71.0,30.04,WSW,257,3.0,8.0,74,0.00,,,0.00,,2013-07-08 15:22:00,
2013-07-08 11:33:00,81.0,71.0,30.04,WSW,250,3.0,8.0,72,0.00,,,0.00,,2013-07-08 15:33:00,
2013-07-08 11:43:00,82.0,72.0,30.04,SSW,198,3.0,10.0,71,0.00,,,0.00,,2013-07-08 15:43:00,
2013-07-08 11:53:00,82.0,72.0,30.04,SSW,198,3.0,10.0,71,0.00,,,0.00,,2013-07-08 15:53:00,
2013-07-08 12:01:00,82.0,72.0,30.04,West,279,2.0,9.0,71,0.00,,,0.00,,2013-07-08 16:01:00,
2013-07-08 12:43:00,82.0,71.0,30.04,WSW,249,2.0,7.0,70,0.00,,,0.00,,2013-07-08 16:43:00,
2013-07-08 12:55:00,82.0,71.0,30.04,WSW,249,2.0,7.0,70,0.00,,,0.00,,2013-07-08 16:55:00,
2013-07-08 13:07:00,81.0,71.0,30.04,West,260,2.0,7.0,71,0.00,,,0.00,,2013-07-08 17:07:00,
2013-07-08 13:28:00,82.0,72.0,30.04,WSW,250,3.0,6.0,72,0.00,,,0.00,,2013-07-08 17:28:00,
2013-07-08 13:37:00,82.0,72.0,30.03,West,259,2.0,6.0,72,0.00,,,0.00,,2013-07-08 17:37:00,
2013-07-08 14:10:00,82.0,72.0,30.02,SW,225,3.0,8.0,71,0.00,,,0.00,,2013-07-08 18:10:00,
2013-07-08 14:33:00,82.0,71.0,30.02,West,261,3.0,9.0,70,0.00,,,0.00,,2013-07-08 18:33:00,
2013-07-08 14:44:00,83.0,72.0,30.02,WSW,247,4.0,8.0,70,0.00,,,0.00,,2013-07-08 18:44:00,
2013-07-08 14:56:00,82.0,70.0,30.02,NW,306,5.0,8.0,68,0.00,,,0.00,,2013-07-08 18:56:00,
2013-07-08 15:20:00,81.0,71.0,30.01,SSW,213,3.0,8.0,71,0.00,,,0.00,,2013-07-08 19:20:00,
2013-07-08 15:39:00,81.0,72.0,30.02,WNW,284,2.0,8.0,73,0.00,,,0.00,,2013-07-08 19:39:00,
2013-07-08 16:14:00,84.0,72.0,30.00,SSW,206,4.0,9.0,68,0.00,,,0.00,,2013-07-08 20:14:00,
2013-07-08 16:51:00,83.0,72.0,29.98,WSW,246,4.0,8.0,69,0.00,,,0.00,,2013-07-08 20:51:00,
2013-07-08 17:00:00,84.0,72.0,29.98,West,259,4.0,15.0,68,0.00,,,0.00,,2013-07-08 21:00:00,
2013-07-08 17:15:00,84.0,72.0,29.98,West,259,4.0,15.0,68,0.00,,,0.00,,2013-07-08 21:15:00,
2013-07-08 17:22:00,85.0,72.0,29.97,WSW,252,4.0,7.0,66,0.00,,,0.00,,2013-07-08 21:22:00,
2013-07-08 17:43:00,86.0,72.0,29.96,SSE,163,3.0,8.0,63,0.00,,,0.00,,2013-07-08 21:43:00,
2013-07-08 17:52:00,86.0,72.0,29.96,SSW,210,5.0,10.0,63,0.00,,,0.00,,2013-07-08 21:52:00,
2013-07-08 18:22:00,85.0,71.0,29.96,SSW,208,3.0,9.0,63,0.00,,,0.00,,2013-07-08 22:22:00,
2013-07-08 18:44:00,86.0,72.0,29.95,SW,214,5.0,12.0,63,0.00,,,0.00,,2013-07-08 22:44:00,
2013-07-08 19:20:00,85.0,71.0,29.95,West,272,7.0,11.0,64,0.00,,,0.00,,2013-07-08 23:20:00,
2013-07-08 19:31:00,85.0,71.0,29.95,West,272,7.0,11.0,64,0.00,,,0.00,,2013-07-08 23:31:00,
2013-07-08 19:45:00,84.0,72.0,29.94,SSW,205,4.0,12.0,67,0.00,,,0.00,,2013-07-08 23:45:00,
2013-07-08 19:53:00,84.0,72.0,29.94,SSW,205,4.0,12.0,67,0.00,,,0.00,,2013-07-08 23:53:00,
2013-07-08 20:22:00,83.0,71.0,29.96,West,271,4.0,7.0,68,0.00,,,0.00,,2013-07-09 00:22:00,
2013-07-08 20:42:00,83.0,72.0,29.96,SW,223,4.0,10.0,69,0.00,,,0.00,,2013-07-09 00:42:00,
2013-07-08 20:53:00,83.0,72.0,29.96,SW,225,3.0,10.0,70,0.00,,,0.00,,2013-07-09 00:53:00,
2013-07-08 21:15:00,82.0,72.0,29.96,WSW,258,3.0,7.0,71,0.00,,,0.00,,2013-07-09 01:15:00,
2013-07-08 21:21:00,82.0,72.0,29.96,WSW,258,3.0,7.0,71,0.00,,,0.00,,2013-07-09 01:21:00,
2013-07-08 21:34:00,82.0,72.0,29.97,WSW,243,2.0,7.0,72,0.00,,,0.00,,2013-07-09 01:34:00,
2013-07-08 21:44:00,82.0,72.0,29.96,WSW,243,2.0,6.0,72,0.00,,,0.00,,2013-07-09 01:44:00,
2013-07-08 22:10:00,81.0,72.0,29.96,WSW,243,3.0,7.0,73,0.00,,,0.00,,2013-07-09 02:10:00,
2013-07-08 22:45:00,81.0,72.0,29.97,SW,233,2.0,7.0,74,0.00,,,0.00,,2013-07-09 02:45:00,